• In Denmark
  • List of Countries
  • For 7 days
  • Water Temperature
  • Satellite Maps
  • Weather Map
  • Weather Widgets
  • user-avatar
    Login

    Hourly Weather Sydney

    Today, 16 December, Saturday

    Time Temperature Precipitation Wind Pressure Humidity
    00:00 +24°C° 0.1 mm 3 mps 759 mmHg 82%
    01:00 +22°C° 0.1 mm 3 mps 759 mmHg 85%
    02:00 +22°C° 0 mm 3 mps 759 mmHg 85%
    03:00 +21°C° 0 mm 3 mps 759 mmHg 86%
    04:00 +21°C° 0 mm 3 mps 758 mmHg 83%
    05:00 +24°C° 0 mm 3 mps 759 mmHg 74%
    06:00 +26°C° 0 mm 3 mps 759 mmHg 65%
    07:00 +28°C° 0 mm 2 mps 759 mmHg 57%
    08:00 +31°C° 0 mm 3 mps 759 mmHg 47%
    09:00 +35°C° 0 mm 3 mps 759 mmHg 38%
    10:00 +38°C° 0 mm 4 mps 759 mmHg 28%
    11:00 +38°C° 0 mm 4 mps 758 mmHg 28%
    12:00 +39°C° 0 mm 5 mps 758 mmHg 28%
    13:00 +39°C° 0 mm 5 mps 758 mmHg 28%
    14:00 +36°C° 0 mm 5 mps 757 mmHg 34%
    15:00 +35°C° 0 mm 6 mps 757 mmHg 39%
    16:00 +34°C° 0 mm 6 mps 757 mmHg 45%
    17:00 +32°C° 0 mm 5 mps 757 mmHg 51%
    18:00 +29°C° 0 mm 5 mps 758 mmHg 57%
    19:00 +28°C° 0 mm 5 mps 758 mmHg 64%
    20:00 +27°C° 0 mm 4 mps 758 mmHg 67%
    21:00 +26°C° 0 mm 4 mps 759 mmHg 71%
    22:00 +26°C° 0 mm 3 mps 759 mmHg 75%
    23:00 +25°C° 0 mm 3 mps 759 mmHg 79%

    Tomorrow, 17 December, Sunday

    Time Temperature Precipitation Wind Pressure Humidity
    00:00 +25°C° 0 mm 3 mps 759 mmHg 83%
    01:00 +24°C° 0 mm 3 mps 759 mmHg 87%
    02:00 +24°C° 0 mm 3 mps 759 mmHg 87%
    03:00 +24°C° 0 mm 3 mps 759 mmHg 87%
    04:00 +23°C° 0 mm 4 mps 759 mmHg 87%
    05:00 +23°C° 0 mm 4 mps 760 mmHg 85%
    06:00 +25°C° 0 mm 4 mps 760 mmHg 82%
    07:00 +25°C° 0 mm 3 mps 760 mmHg 80%
    08:00 +26°C° 0 mm 3 mps 760 mmHg 77%
    09:00 +27°C° 0 mm 4 mps 760 mmHg 73%
    10:00 +27°C° 0 mm 4 mps 761 mmHg 70%
    11:00 +29°C° 0 mm 4 mps 760 mmHg 65%
    12:00 +30°C° 0 mm 4 mps 760 mmHg 60%
    13:00 +32°C° 0 mm 4 mps 759 mmHg 56%
    14:00 +32°C° 0 mm 4 mps 759 mmHg 56%
    15:00 +32°C° 0 mm 4 mps 758 mmHg 57%
    16:00 +32°C° 0 mm 4 mps 758 mmHg 57%
    17:00 +29°C° 1.6 mm 3 mps 758 mmHg 68%
    18:00 +27°C° 1.6 mm 3 mps 759 mmHg 80%
    19:00 +24°C° 1.6 mm 2 mps 759 mmHg 91%
    20:00 +24°C° 0.3 mm 2 mps 759 mmHg 91%
    21:00 +24°C° 0.3 mm 1 mps 760 mmHg 92%
    22:00 +24°C° 0.3 mm 1 mps 760 mmHg 92%
    23:00 +24°C° 0 mm 1 mps 760 mmHg 93%

    Day after tomorrow, 18 December, Monday

    Time Temperature Precipitation Wind Pressure Humidity
    00:00 +23°C° 0 mm 1 mps 759 mmHg 94%
    01:00 +23°C° 0 mm 1 mps 759 mmHg 95%
    02:00 +23°C° 0 mm 1 mps 759 mmHg 95%
    03:00 +23°C° 0 mm 1 mps 758 mmHg 96%
    04:00 +23°C° 0 mm 1 mps 758 mmHg 96%
    05:00 +24°C° 0 mm 1 mps 758 mmHg 91%
    06:00 +25°C° 0 mm 1 mps 758 mmHg 86%
    07:00 +26°C° 0 mm 1 mps 758 mmHg 81%
    08:00 +29°C° 0 mm 1 mps 758 mmHg 69%
    09:00 +32°C° 0 mm 1 mps 758 mmHg 56%
    10:00 +35°C° 0 mm 1 mps 758 mmHg 44%
    11:00 +38°C° 0 mm 2 mps 757 mmHg 40%
    12:00 +39°C° 0 mm 3 mps 756 mmHg 37%
    13:00 +41°C° 0 mm 4 mps 755 mmHg 34%
    14:00 +38°C° 0 mm 4 mps 755 mmHg 40%
    15:00 +36°C° 0 mm 4 mps 755 mmHg 47%
    16:00 +34°C° 0 mm 5 mps 754 mmHg 53%
    17:00 +32°C° 0.2 mm 4 mps 755 mmHg 58%
    18:00 +30°C° 0.2 mm 4 mps 755 mmHg 63%
    19:00 +28°C° 0.2 mm 3 mps 756 mmHg 67%
    20:00 +27°C° 0 mm 3 mps 756 mmHg 71%
    21:00 +26°C° 0 mm 2 mps 756 mmHg 75%
    22:00 +26°C° 0 mm 1 mps 757 mmHg 79%
    23:00 +25°C° 0 mm 2 mps 757 mmHg 82%

    19 December, Tuesday

    Time Temperature Precipitation Wind Pressure Humidity
    00:00 +25°C° 0 mm 2 mps 756 mmHg 84%
    01:00 +24°C° 0 mm 2 mps 756 mmHg 86%
    02:00 +24°C° 0 mm 2 mps 756 mmHg 87%
    03:00 +23°C° 0 mm 2 mps 756 mmHg 88%
    04:00 +23°C° 0 mm 2 mps 756 mmHg 89%
    05:00 +24°C° 0.1 mm 2 mps 756 mmHg 84%
    06:00 +26°C° 0.1 mm 1 mps 756 mmHg 78%
    07:00 +27°C° 0.1 mm 1 mps 756 mmHg 73%
    08:00 +30°C° 0 mm 1 mps 756 mmHg 64%
    09:00 +32°C° 0 mm 2 mps 755 mmHg 54%
    10:00 +36°C° 0 mm 2 mps 755 mmHg 44%
    11:00 +38°C° 0 mm 3 mps 754 mmHg 38%
    12:00 +42°C° 0 mm 4 mps 753 mmHg 31%
    13:00 +44°C° 0 mm 4 mps 752 mmHg 25%
    14:00 +43°C° 0 mm 5 mps 752 mmHg 28%
    15:00 +42°C° 0 mm 6 mps 751 mmHg 31%
    16:00 +40°C° 0 mm 6 mps 750 mmHg 34%
    17:00 +38°C° 0 mm 6 mps 751 mmHg 42%
    18:00 +34°C° 0 mm 6 mps 751 mmHg 50%
    19:00 +32°C° 0 mm 6 mps 751 mmHg 57%
    20:00 +30°C° 0 mm 6 mps 751 mmHg 59%
    21:00 +29°C° 0 mm 6 mps 751 mmHg 61%
    22:00 +29°C° 0 mm 5 mps 751 mmHg 63%
    23:00 +28°C° 0 mm 5 mps 750 mmHg 61%

    20 December, Wednesday

    Time Temperature Precipitation Wind Pressure Humidity
    00:00 +28°C° 0 mm 4 mps 750 mmHg 58%
    01:00 +28°C° 0 mm 4 mps 750 mmHg 55%
    02:00 +29°C° 0 mm 4 mps 750 mmHg 48%
    03:00 +30°C° 0 mm 4 mps 750 mmHg 41%
    04:00 +32°C° 0 mm 4 mps 751 mmHg 33%
    05:00 +33°C° 0 mm 4 mps 752 mmHg 35%
    06:00 +33°C° 0 mm 3 mps 752 mmHg 37%
    07:00 +34°C° 0 mm 3 mps 753 mmHg 38%
    08:00 +37°C° 0 mm 3 mps 753 mmHg 34%
    09:00 +39°C° 0 mm 2 mps 753 mmHg 30%
    10:00 +42°C° 0 mm 2 mps 754 mmHg 25%
    11:00 +42°C° 0.1 mm 3 mps 753 mmHg 28%
    12:00 +40°C° 0.1 mm 3 mps 753 mmHg 30%
    13:00 +40°C° 0.1 mm 4 mps 753 mmHg 33%
    14:00 +36°C° 1.3 mm 4 mps 753 mmHg 45%
    15:00 +33°C° 1.3 mm 3 mps 753 mmHg 57%
    16:00 +29°C° 1.3 mm 2 mps 753 mmHg 69%
    17:00 +28°C° 4.1 mm 2 mps 754 mmHg 76%
    18:00 +27°C° 4.1 mm 3 mps 755 mmHg 82%
    19:00 +26°C° 4.1 mm 3 mps 756 mmHg 89%
    20:00 +26°C° 1.9 mm 3 mps 757 mmHg 88%
    21:00 +26°C° 1.9 mm 2 mps 758 mmHg 88%
    22:00 +26°C° 1.9 mm 2 mps 759 mmHg 87%
    23:00 +25°C° 0.1 mm 3 mps 759 mmHg 88%

    21 December, Thursday

    Time Temperature Precipitation Wind Pressure Humidity
    00:00 +23°C° 0.1 mm 5 mps 759 mmHg 89%
    01:00 +22°C° 0.1 mm 6 mps 758 mmHg 90%
    02:00 +22°C° 0 mm 6 mps 759 mmHg 88%
    03:00 +21°C° 0 mm 6 mps 759 mmHg 87%
    04:00 +21°C° 0 mm 6 mps 760 mmHg 85%
    05:00 +21°C° 0.1 mm 6 mps 761 mmHg 85%
    06:00 +21°C° 0.1 mm 6 mps 762 mmHg 84%
    07:00 +21°C° 0.1 mm 6 mps 762 mmHg 83%
    08:00 +21°C° 0.1 mm 6 mps 763 mmHg 82%
    09:00 +21°C° 0.1 mm 5 mps 763 mmHg 81%
    10:00 +21°C° 0.1 mm 5 mps 764 mmHg 80%
    11:00 +22°C° 0 mm 5 mps 763 mmHg 76%
    12:00 +22°C° 0 mm 4 mps 763 mmHg 71%
    13:00 +23°C° 0 mm 4 mps 763 mmHg 67%
    14:00 +23°C° 0.1 mm 4 mps 763 mmHg 71%
    15:00 +22°C° 0.1 mm 4 mps 762 mmHg 75%
    16:00 +21°C° 0.1 mm 3 mps 762 mmHg 79%
    17:00 +21°C° 0 mm 3 mps 763 mmHg 79%
    18:00 +21°C° 0 mm 3 mps 763 mmHg 80%
    19:00 +21°C° 0 mm 3 mps 763 mmHg 81%
    20:00 +20°C° 0 mm 3 mps 763 mmHg 84%
    21:00 +20°C° 0 mm 3 mps 763 mmHg 86%
    22:00 +19°C° 0 mm 3 mps 764 mmHg 89%
    23:00 +20°C° 0.1 mm 3 mps 763 mmHg 89%
    Show more